Location: *
(50.9167°S, 179.4000°W)
Time: 20:49:12
(UTC+00:00)

ATLAS 5 CENTAUR R/B - Pass Details

Date: 03 March 2024
Orbit: 425 x 1174 km, 63.3° (Epoch: 15 April)

Event Time Altitude Azimuth Distance (km) Brightness Sun altitude
Rises 12:26:19 0° 240° (WSW) 3,947 6.0 -32.5°
Reaches altitude 10° 12:29:38 10° 229° (SW) 2,894 5.3 -32.4°
Maximum altitude 12:35:28 29° 170° (S) 1,680 4.2 -32.3°
Drops below altitude 10° 12:40:27 10° 111° (ESE) 2,447 4.9 -32.2°
Sets 12:43:01 0° 99° (E) 3,247 5.5 -32.1°
